Regional Weather Roundup
Issued by NWS

Home | Current Version | Previous Version | Graphics & Text | Print | Product List | Glossary On
Versions: 1 2 3 4 5 6 7 8 9 10 11 12 13 14 15 16 17 18 19 20 21 22 23 24 25 26 27 28 29 30 31 32 33 34 35 36 37 38 39 40 41 42 43 44 45 46 47 48 49 50
000
ASUS43 KBIS 241959
RWRND

NORTH DAKOTA REGIONAL WEATHER ROUNDUP
NATIONAL WEATHER SERVICE BISMARCK ND
300 PM CDT THU APR 24 2014

NOTE: "FAIR" INDICATES FEW OR NO CLOUDS BELOW 12,000 FEET WITH NO
SIGNIFICANT WEATHER AND/OR OBSTRUCTIONS TO VISIBILITY.


NDZ001>003-009>011-017-242100-
NORTHWEST NORTH DAKOTA

CITY           SKY/WX    TMP DP  RH WIND       PRES   REMARKS
WILLISTON      PTSUNNY   55  33  43 VRB6      29.72F
MINOT          PTSUNNY   55  37  50 NW17G26   29.65F
$$

NDZ018>021-031>035-040>046-242100-
SOUTHWEST NORTH DAKOTA

CITY           SKY/WX    TMP DP  RH WIND       PRES   REMARKS
BISMARCK       MOSUNNY   61  19  19 W21G26    29.69F
DICKINSON      MOSUNNY   60  20  21 W17G29    29.71S
GARRISON         N/A     58  28  32 NW21G30   29.68S
HETTINGER ARPT MOSUNNY   59  18  20 W22G31    29.75F
$$

NDZ004>008-012>016-024-026-027-054-242100-
NORTHEAST NORTH DAKOTA

CITY           SKY/WX    TMP DP  RH WIND       PRES   REMARKS
GRAND FORKS    CLOUDY    43  40  89 S6        29.70F
DEVILS LAKE    SUNNY     52  41  66 S7        29.65F
$$

NDZ022-023-025-028>030-036>039-047>053-242100-
SOUTHEAST NORTH DAKOTA

CITY           SKY/WX    TMP DP  RH WIND       PRES   REMARKS
FARGO          CLOUDY    47  42  83 SW9       29.70S
JAMESTOWN      PTSUNNY   61  29  29 W16G25    29.64F
$$




USA.gov is the U.S. government's official web portal to all federal, state and local government web resources and services.